Zurück zum Katalog

SL-14 DEB

AktivPO
NORAD 43320·DEBRIS·🇷🇺 Russia

Gestartet Dec 2, 1986 von Plesetsk Cosmodrome

Loading…

Nächste Überflüge (nächste 24 Stunden)

TLE

AlterndSource: Space-Track

Epoche: Sep 4, 2026, 11:45 UTC

1 43320U 86094C   26247.49017005  .00000015  00000-0  36366-4 0  9990
2 43320  82.6088 317.5148 0002851 230.1127 129.9703 12.42191154498616

Verfolge SL-14 DEB in Echtzeit mit AllMySat

Download on the App Store